Terminal Aerodrome Forecast
Issued by NWS Pueblo, CO

Home | Current Version | Previous Version | Text Only | Print | Product List | Glossary On
Versions: 1 2 3 4 5 6 7 8 9 10 11 12 13 14 15 16 17 18 19 20 21 22
000
FTUS45 KPUB 290901 AAB
TAFALS
TAF AMD
KALS 290901Z 2909/3006 03010KT P6SM VCSH SCT020 BKN040
     FM291100 04008KT 5SM -SHSN SCT015 BKN025
     FM292000 36012KT P6SM VCSH SCT025 BKN035
     FM292300 34010KT P6SM SCT030 BKN040=

USA.gov is the U.S. government's official web portal to all federal, state and local government web resources and services.